Station 46005 (LLNR 765.5) - WEST WASHINGTON - 300NM West of Aberdeen, WA Image indicating link to RSS feed of recent meteorological observations for station 46005


Conditions at 46005 as of
(12:50 pm AKDT)
2050 GMT on 04/23/2024:
     

Click on the graph icon in the table below to see a time series plot of the last five days of that observation.

5-day plot - Wind Direction Wind Direction (WDIR):WSW ( 240 deg true )
5-day plot - Wind Speed Wind Speed (WSPD): 11.7 kts
5-day plot - Wind Gust Wind Gust (GST): 15.5 kts
5-day plot - Wave Height Wave Height (WVHT): 4.9 ft
5-day plot - Dominant Wave Period Dominant Wave Period (DPD): 9 sec
5-day plot - Average Wave Period Average Period (APD): 5.5 sec
5-day plot - Mean Wave Direction Mean Wave Direction (MWD):WNW ( 282 deg true )
5-day plot - Atmospheric Pressure Atmospheric Pressure (PRES):30.03 in
5-day plot - Air Temperature Air Temperature (ATMP): 50.0 °F
5-day plot - Water Temperature Water Temperature (WTMP): 49.6 °F
5-day plot - Dew Point Dew Point (DEWP): 50.0 °F
5-day plot - Wind Chill Wind Chill (CHILL): 45.0 °F
5-day plot - Wind Speed at 10 Meters Wind Speed at 10 meters (WSPD10M): 13.6 kts
5-day plot - Wind Speed at 20 Meters Wind Speed at 20 meters (WSPD20M): 13.6 kts
5-day plot -  Wind Speed, Wind Gust and Atmospheric Pressure Combined plot of Wind Speed, Gust, and Air Pressure
Supplemental Measurements
Highest 1-minute Wind Speed
Time (AKDT)5-day plot - 1-Minute Wind Speed WSPD 5-day plot - 1-Minute Wind Direction WDIR
12:44 pm 13.6 kts-
Previous observations
TIME
(AKDT)
5-day plot - Wind Direction
WDIR
 
5-day plot - Wind Speed
WSPD
kts
5-day plot - Wind Gust
GST
kts
5-day plot - Wave Height
WVHT
ft
5-day plot - Dominant Wave Period
DPD
sec
5-day plot - Average Wave Period
APD
sec
5-day plot - Mean Wave Direction
MWD
 
5-day plot - Atmospheric Pressure
PRES
in
5-day plot - Pressure Tendency
PTDY
in
5-day plot - Air Temperature
ATMP
°F
5-day plot - Water Temperature
WTMP
°F
5-day plot - Dew Point
DEWP
°F
5-day plot - Salinity
SAL
psu
5-day plot - Visibility
VIS
nmi
5-day plot - Tide (above MLLW)
TIDE
ft
2024-04-23 12:40 pmWSW 13.6 15.5----30.03- 50.0 49.6 50.0---
2024-04-23 12:30 pm SW 11.7 15.5----30.04- 50.0 49.6 49.8---
2024-04-23 12:20 pmWSW 11.7 15.5 4.6 95.3WNW30.03- 50.0 49.6 49.8---
2024-04-23 12:10 pm SW 13.6 15.5 4.6-5.3WNW30.03- 50.0 49.6 50.0---
2024-04-23 12:00 pm SW 13.6 15.5----30.04+0.00 49.8 49.6 49.8---
2024-04-23 11:50 am SW 13.6 15.5 4.6 95.6WNW30.03- 49.8 49.6 49.8---
2024-04-23 11:40 am SW 13.6 15.5----30.03- 49.8 49.6 49.8---
2024-04-23 11:30 am SW 13.6 15.5----30.03- 49.8 49.8 49.8---
2024-04-23 11:20 am SW 13.6 15.5 4.3 95.5WNW30.03- 49.8 49.6 49.8---
2024-04-23 11:10 am SW 11.7 15.5 4.3-5.5WNW30.03- 49.8 49.6 49.8---
2024-04-23 11:00 am SW 13.6 17.5----30.04+0.00 49.8 49.6 49.8---
2024-04-23 10:50 am SW 13.6 15.5 4.3 85.3 W30.04- 49.8 49.6 49.8---
2024-04-23 10:40 am SW 13.6 17.5----30.03- 49.8 49.6 49.6---
2024-04-23 10:30 am SW 13.6 15.5----30.03- 49.8 49.6 49.6---
2024-04-23 10:20 am SW 11.7 15.5 4.6 165.7WSW30.03- 49.8 49.6 49.6---
2024-04-23 10:10 am SW 13.6 15.5 4.6-5.7WSW30.03- 49.8 49.8 49.6---
2024-04-23 10:00 am SW 11.7 15.5----30.03-0.01 49.8 49.8 49.6---
2024-04-23 09:50 am SW 11.7 15.5 4.3 165.5 S30.03- 49.8 49.8 49.6---
2024-04-23 09:40 am SW 11.7 15.5----30.03- 49.8 49.8 49.6---
2024-04-23 09:30 am SW 11.7 13.6----30.03- 49.8 49.8 49.5---
2024-04-23 09:20 am SW 11.7 13.6 3.9 165.4 SW30.03- 49.8 49.6 49.6---
2024-04-23 09:10 am SW 11.7 13.6 3.9-5.4 SW30.03- 49.8 49.6 49.5---
2024-04-23 09:00 am SW 9.7 13.6----30.03-0.01 49.8 49.6 49.3---
2024-04-23 08:50 am SW 11.7 13.6 3.9 85.4 W30.03- 49.8 49.6 49.3---
2024-04-23 08:40 am SW 11.7 13.6----30.03- 49.6 49.6 49.1---
2024-04-23 08:30 am SW 11.7 13.6----30.03- 49.6 49.6 49.1---
2024-04-23 08:20 am SW 11.7 13.6 4.3 95.6WNW30.04- 49.6 49.6 49.1---
2024-04-23 08:10 am SW 11.7 13.6 4.3-5.6WNW30.03- 49.6 49.6 49.1---
2024-04-23 08:00 am SW 11.7 13.6----30.04+0.00 49.6 49.6 49.1---
2024-04-23 07:50 am SW 11.7 13.6 4.3 85.4WNW30.04- 49.6 49.6 49.1---
2024-04-23 07:40 am SW 11.7 13.6----30.04- 49.6 49.6 49.1---
2024-04-23 07:30 am SW 11.7 13.6----30.04- 49.6 49.6 49.1---
2024-04-23 07:20 am SW 11.7 13.6 3.9 165.4WSW30.04- 49.6 49.6 49.1---
2024-04-23 07:10 am SW 11.7 15.5 3.9-5.4WSW30.04- 49.6 49.6 48.9---
2024-04-23 07:00 am SW 11.7 15.5----30.04+0.00 49.8 49.6 49.1---
2024-04-23 06:50 am SW 11.7 13.6 3.9 165.7 SW30.04- 49.8 49.6 49.1---
2024-04-23 06:40 am SW 11.7 13.6----30.04- 49.6 49.8 48.9---
2024-04-23 06:30 am SW 11.7 15.5----30.04- 49.6 49.8 48.9---
2024-04-23 06:20 am SW 11.7 13.6 3.9 95.7WNW30.04- 49.6 49.8 48.9---
2024-04-23 06:10 am SW 11.7 13.6 3.9-5.7WNW30.04- 49.5 49.8 48.7---
2024-04-23 06:00 am SW 11.7 15.5----30.04-0.03 49.6 49.8 48.6---
2024-04-23 05:50 am SW 11.7 13.6 3.6 85.2WNW30.04- 49.6 49.8 48.4---
2024-04-23 05:40 am SW 9.7 11.7----30.04- 49.6 49.8 48.4---
2024-04-23 05:30 am SW 9.7 13.6----30.04- 49.5 49.8 48.2---
2024-04-23 05:20 am SW 11.7 13.6 3.6 85.5 W30.04- 49.5 49.8 48.0---
2024-04-23 05:10 am SW 11.7 13.6 3.6-5.5 W30.04- 49.5 49.8 47.8---
2024-04-23 05:00 am SW 11.7 13.6----30.05-0.03 49.5 49.8 47.8---
2024-04-23 04:50 am SW 11.7 15.5 3.6 85.5 W30.05- 49.5 49.8 47.8---
2024-04-23 04:40 am SW 11.7 15.5----30.05- 49.5 49.8 47.8---
2024-04-23 04:30 am SW 11.7 13.6----30.05- 49.3 49.8 47.5---
2024-04-23 04:20 am SW 11.7 13.6 3.6 85.7 W30.05- 49.3 50.0 47.3---
2024-04-23 04:10 am SW 11.7 15.5 3.6-5.7 W30.05- 49.3 50.0 47.3---
2024-04-23 04:00 am SW 11.7 13.6----30.05-0.04 49.3 50.0 47.3---
2024-04-23 03:50 am SW 11.7 15.5 3.3 95.4WNW30.06- 49.3 50.0 47.1---
2024-04-23 03:40 am SW 11.7 13.6----30.06- 49.3 50.0 47.1---
2024-04-23 03:30 am SW 11.7 13.6----30.06- 49.1 50.0 46.9---
2024-04-23 03:20 am SW 11.7 13.6 3.6 95.5WNW30.06- 49.3 50.0 47.1---
2024-04-23 03:10 am SW 11.7 15.5 3.6-5.5WNW30.06- 49.3 50.0 47.3---
2024-04-23 03:00 am SW 11.7 15.5----30.06-0.04 49.3 50.2 47.3---
2024-04-23 02:50 am SW 11.7 15.5 3.6 96.1 W30.06- 49.3 50.2 47.3---
2024-04-23 02:40 am SW 11.7 13.6----30.07- 49.3 50.2 47.3---
2024-04-23 02:30 am SW 11.7 13.6----30.06- 49.1 50.2 46.9---
2024-04-23 02:20 am SW 11.7 13.6 3.3 96.0WNW30.07- 49.3 50.2 47.1---
2024-04-23 02:10 am SW 11.7 13.6 3.3-6.0WNW30.07- 49.1 50.2 46.8---
2024-04-23 02:00 am SW 11.7 13.6----30.08-0.04 49.3 50.2 47.1---
2024-04-23 01:50 am SW 11.7 13.6 3.3 96.5 W30.08- 49.1 50.2 46.6---
2024-04-23 01:40 am SW 11.7 13.6----30.08- 49.1 50.2 46.4---
2024-04-23 01:30 am SW 11.7 11.7----30.08- 49.1 50.2 46.2---
2024-04-23 01:20 am SW 9.7 13.6 3.6 87.1 W30.09- 49.1 50.2 46.4---
2024-04-23 01:10 am SW 9.7 11.7 3.6-7.1 W30.09- 49.1 50.2 46.2---
2024-04-23 01:00 am SW 9.7 11.7----30.09-0.04 49.1 50.2 46.2---
2024-04-23 12:50 am SW 9.7 11.7 3.3 87.0 W30.09- 49.1 50.2 46.2---
2024-04-23 12:40 am SW 7.8 9.7----30.09- 49.1 50.2 46.2---
2024-04-23 12:30 am SW 7.8 9.7----30.09- 49.1 50.2 46.0---
2024-04-23 12:20 am SW 7.8 9.7 3.9 107.5 W30.10- 48.9 50.2 45.7---
2024-04-23 12:10 am SW 7.8 9.7 3.9-7.5 W30.10- 49.1 50.2 45.9---
2024-04-23 12:00 amWSW 7.8 9.7----30.11-0.04 48.9 50.2 45.5---
2024-04-22 11:50 pmWSW 7.8 9.7 3.3 97.1 W30.11- 48.9 50.2 45.5---
2024-04-22 11:40 pmWSW 7.8 9.7 3.3-7.1 W30.11- 49.1 50.2 45.7---
2024-04-22 11:30 pmWSW 7.8 9.7----30.11- 49.1 50.2 45.5---
2024-04-22 11:20 pmWSW 7.8 9.7 3.9 97.5 W30.11- 48.9 50.2 45.1---
2024-04-22 11:10 pmWSW 7.8 9.7 3.9-7.5 W30.11- 48.9 50.2 45.1---
2024-04-22 11:00 pmWSW 7.8 9.7----30.11-0.03 49.1 50.2 45.1---
2024-04-22 10:50 pmWSW 7.8 9.7 4.3 97.7 W30.12- 49.1 50.2 45.1---
2024-04-22 10:40 pmWSW 7.8 9.7----30.12- 48.9 50.2 44.6---
2024-04-22 10:30 pmWSW 5.8 9.7----30.12- 48.9 50.2 44.6---
2024-04-22 10:20 pmWSW 7.8 9.7 3.9 97.5WNW30.12- 48.9 50.2 44.4---
2024-04-22 10:10 pmWSW 5.8 7.8 3.9-7.5WNW30.13- 48.9 50.2 44.2---
2024-04-22 10:00 pmWSW 5.8 7.8----30.13-0.02 48.9 50.2 44.2---
2024-04-22 09:50 pm SW 5.8 7.8 3.9 97.8WNW30.13- 48.9 50.2 44.1---
2024-04-22 09:40 pm SW 5.8 7.8----30.13- 48.9 50.4 43.9---
2024-04-22 09:30 pm SW 5.8 5.8----30.14- 48.9 50.4 43.7---
2024-04-22 09:20 pmWSW 3.9 5.8 4.3 97.9WNW30.14- 48.7 50.2 43.3---
2024-04-22 09:10 pmWSW 3.9 5.8 4.3-7.9WNW30.14- 48.7 50.2 43.2---
2024-04-22 09:00 pmWSW 3.9 5.8----30.14-0.01 48.6 50.2 42.8---
2024-04-22 08:50 pmWSW 3.9 5.8 3.9 97.5WNW30.14- 48.6 50.2 42.8---
2024-04-22 08:40 pm W 5.8 7.8 3.9-7.5WNW30.14- 48.7 50.2 42.8---
2024-04-22 08:30 pm W 5.8 7.8----30.14- 48.7 50.4 42.3---
2024-04-22 08:20 pm W 5.8 7.8 4.3 98.1 W30.14- 48.6 50.4 41.5---
2024-04-22 08:10 pm W 5.8 5.8 4.3-8.1 W30.14- 48.6 50.5 41.0---
2024-04-22 08:00 pm W 5.8 7.8----30.14-0.02 48.6 50.7 41.2---
2024-04-22 07:50 pm W 5.8 7.8 4.3 107.5 W30.14- 48.6 50.5 41.2---
2024-04-22 07:40 pm W 5.8 7.8----30.14- 48.7 50.9 41.4---
2024-04-22 07:30 pm W 5.8 7.8----30.14- 48.7 50.9 41.2---
2024-04-22 07:20 pm W 5.8 7.8 4.3 107.7WNW30.14- 48.9 50.7 41.4---
2024-04-22 07:10 pm W 3.9 5.8 4.3-7.7WNW30.15- 48.9 50.7 41.2---
2024-04-22 07:00 pm W 3.9 5.8----30.14-0.03 48.9 50.5 40.8---
2024-04-22 06:50 pm W 3.9 5.8 3.9 97.6WNW30.14- 49.3 50.5 40.8---
2024-04-22 06:40 pm W 3.9 5.8----30.14- 49.3 50.5 41.0---
2024-04-22 06:30 pmWSW 3.9 5.8----30.15- 49.5 50.7 41.4---
2024-04-22 06:20 pmWSW 3.9 5.8 4.3 108.0WNW30.15- 49.6 50.5 41.5---
2024-04-22 06:10 pmWSW 3.9 5.8 4.3-8.0WNW30.15- 49.6 50.5 41.4---
2024-04-22 06:00 pm W 3.9 5.8----30.15-0.05 49.6 50.7 41.7---
2024-04-22 05:50 pm W 3.9 5.8 4.3 107.8WNW30.15- 49.8 50.7 41.7---
2024-04-22 05:40 pmWSW 3.9 5.8----30.15- 49.6 50.7 41.5---
2024-04-22 05:30 pm W 5.8 7.8----30.16- 49.5 50.7 41.2---
2024-04-22 05:20 pm W 3.9 5.8 4.3 107.8 NW30.16- 49.6 50.7 41.0---
2024-04-22 05:10 pmWSW 3.9 5.8 4.3-7.8 NW30.16- 49.6 50.7 40.8---
2024-04-22 05:00 pmWSW 3.9 5.8----30.16-0.04 49.6 50.7 40.5---
2024-04-22 04:50 pmWSW 5.8 7.8 4.3 117.8 W30.16- 49.6 50.7 40.6---
2024-04-22 04:40 pmWSW 3.9 7.8 4.3-7.8 W30.17- 49.5 50.9 40.3---
2024-04-22 04:30 pmWSW 5.8 5.8----30.17- 49.6 50.9 40.8---
2024-04-22 04:20 pmWSW 5.8 7.8 4.3 117.7WNW30.17- 49.5 50.9 40.3---
2024-04-22 04:10 pmWSW 5.8 7.8 4.3-7.7WNW30.18- 49.5 50.9 40.1---
2024-04-22 04:00 pmWSW 5.8 7.8----30.18-0.04 49.5 51.1 40.1---
2024-04-22 03:50 pmWSW 5.8 7.8 4.6 117.6WNW30.18- 49.3 51.3 39.6---
2024-04-22 03:40 pmWSW 3.9 5.8----30.19- 49.5 50.9 39.9---
2024-04-22 03:30 pmWSW 5.8 5.8----30.19- 49.3 51.1 39.7---
2024-04-22 03:20 pm SW 5.8 7.8 4.6 117.6 W30.19- 49.3 51.1 39.6---
2024-04-22 03:10 pmWSW 3.9 5.8 4.6-7.6 W30.19- 49.3 51.3 39.6---
2024-04-22 03:00 pm SW 3.9 5.8----30.20-0.03 49.3 51.4 39.2---
2024-04-22 02:50 pm SW 3.9 5.8 4.6 117.7WNW30.20- 49.3 51.1 38.8---
2024-04-22 02:40 pm SW 3.9 5.8----30.20- 49.3 50.9 39.0---
2024-04-22 02:30 pm SW 3.9 5.8----30.20- 49.3 50.7 38.8---
2024-04-22 02:20 pmSSW 3.9 5.8 4.9 117.9WNW30.20- 49.3 51.1 38.8---
2024-04-22 02:10 pm S 3.9 5.8 4.9-7.9WNW30.20- 49.3 50.9 38.8---
2024-04-22 02:00 pmSSW 3.9 5.8----30.21-0.03 49.3 51.1 38.8---
2024-04-22 01:50 pm SW 3.9 5.8 4.6 107.6WNW30.21- 49.3 50.7 38.5---
2024-04-22 01:40 pm SW 3.9 5.8 4.6-7.6WNW30.21- 49.3 50.9 37.9---
2024-04-22 01:30 pm SW 3.9 5.8----30.21- 49.3 51.1 38.5---
2024-04-22 01:20 pm S 3.9 7.8 4.9 107.8WNW30.21- 49.1 50.5 39.0---
2024-04-22 01:10 pm S 3.9 5.8----30.22- 49.1 50.7 38.8---
2024-04-22 01:00 pm S 3.9 5.8----30.21-0.03 49.3 50.5 38.7---
2024-04-22 12:50 pm S 1.9 3.9 4.9 107.6WNW30.22- 49.6 51.3 38.8---

Detailed Wave Summary
for 46005 as of (12:40 pm AKDT)
2040 GMT on 04/23/2024:

These wave data are displayed in rounded times.

     

Click on the graph icon in the table below to see a time series plot of the last five days of that observation.

5-day plot - Significant Wave Height Significant Wave Height (WVHT): 4.9 ft
5-day plot - Swell Height Swell Height (SwH): 3.9 ft
5-day plot - Swell Period Swell Period (SwP): 9.1 sec
5-day plot - Swell Direction Swell Direction (SwD):WNW
5-day plot - Wind Wave Height Wind Wave Height (WWH): 3.3 ft
5-day plot - Wind Wave Period Wind Wave Period (WWP): 5.0 sec
5-day plot - Wind Wave Direction Wind Wave Direction (WWD): W
5-day plot - Wave Steepness Wave Steepness (STEEPNESS): AVERAGE
5-day plot - Average Wave Period Average Wave Period (APD): 5.5 sec
Previous observations
TIME
(AKDT)
5-day plot - Wave Height
WVHT
ft
5-day plot - Swell Height
SwH
ft
5-day plot - Swell Period
SwP
sec
5-day plot - Swell Direction
SwD
 
5-day plot - Wind Wave Height
WWH
ft
5-day plot - Wind Wave Period
WWP
sec
5-day plot - Wind Wave Direction
WWD
 
5-day plot - Wave Steepness
STEEPNESS
 
5-day plot - Average Wave Period
APD
sec
2024-04-23 12:10 pm 4.6 3.6 9.1WNW 3.0 5.6 W SWELL 5.3
2024-04-23 11:40 am 4.6 3.6 9.1WNW 3.0 5.9 W SWELL 5.6
2024-04-23 11:10 am 4.3 3.6 9.1WNW 2.6 5.0 W SWELL 5.5
2024-04-23 10:40 am 4.3 3.3 8.3 W 3.0 5.6 W AVERAGE 5.3
2024-04-23 10:10 am 4.6 3.6 16.0WSW 2.6 6.2 W SWELL 5.7
2024-04-23 09:40 am 4.3 3.3 16.0 S 2.6 5.0 W SWELL 5.5
2024-04-23 09:10 am 3.9 3.3 16.0 SW 2.3 5.0 W SWELL 5.4
2024-04-23 08:40 am 3.9 3.3 8.3 W 2.0 4.8 W AVERAGE 5.4
2024-04-23 08:10 am 4.3 3.6 9.1WNW 2.3 3.8 WSW SWELL 5.6
2024-04-23 07:40 am 4.3 3.3 8.3WNW 2.3 5.3 W AVERAGE 5.4
2024-04-23 07:10 am 3.9 3.0 16.0WSW 2.3 4.0 WSW SWELL 5.4
2024-04-23 06:40 am 3.9 3.3 16.0 SW 2.0 5.3 W SWELL 5.7
2024-04-23 06:10 am 3.9 3.3 9.1WNW 2.0 5.3 W SWELL 5.7
2024-04-23 05:40 am 3.6 3.0 7.7WNW 2.0 3.8 WSW AVERAGE 5.2
2024-04-23 05:10 am 3.6 3.3 8.3 W 2.0 5.3 W AVERAGE 5.5
2024-04-23 04:40 am 3.6 3.0 8.3 W 2.0 5.9 W AVERAGE 5.5
2024-04-23 04:10 am 3.6 3.3 8.3 W 1.6 5.0 WSW AVERAGE 5.7
2024-04-23 03:40 am 3.3 3.0 9.1WNW 1.6 5.0 W SWELL 5.4
2024-04-23 03:10 am 3.6 3.3 9.1WNW 1.6 5.6 W SWELL 5.5
2024-04-23 02:40 am 3.6 3.3 9.1 W 1.3 5.0 WSW SWELL 6.1
2024-04-23 02:10 am 3.3 3.0 9.1WNW 1.6 5.3 W SWELL 6.0
2024-04-23 01:40 am 3.3 3.0 9.1 W 1.3 5.3 SW SWELL 6.5
2024-04-23 01:10 am 3.6 3.3 8.3 W 1.0 4.2 W SWELL 7.1
2024-04-23 12:40 am 3.3 3.3 8.3 W 0.7 3.7 WSW SWELL 7.0
2024-04-23 12:10 am 3.9 3.6 10.0 W 0.7 4.0 W SWELL 7.5
2024-04-22 11:40 pm 3.3 3.3 9.1 W 0.7 3.8 W SWELL 7.1
2024-04-22 11:10 pm 3.9 3.6 9.1 W 0.7 4.0 W SWELL 7.5
2024-04-22 10:40 pm 4.3 4.3 9.1 W 0.7 3.7 W SWELL 7.7
2024-04-22 10:10 pm 3.9 3.9 9.1WNW 0.7 3.8 W SWELL 7.5
2024-04-22 09:40 pm 3.9 3.9 9.1WNW 0.7 3.7 WSW SWELL 7.8
2024-04-22 09:10 pm 4.3 4.3 9.1WNW 0.7 3.8 WSW SWELL 7.9
2024-04-22 08:40 pm 3.9 3.9 9.1WNW 0.7 4.0 W SWELL 7.5
2024-04-22 08:10 pm 4.3 4.3 9.1 W 0.7 3.7 W SWELL 8.1
2024-04-22 07:40 pm 4.3 4.3 10.0 W 0.7 4.0 WSW SWELL 7.5
2024-04-22 07:10 pm 4.3 4.3 10.0WNW 0.7 4.0 W SWELL 7.7
2024-04-22 06:40 pm 3.9 3.9 9.1WNW 0.7 3.8 WSW SWELL 7.6
2024-04-22 06:10 pm 4.3 4.3 10.0WNW 0.7 3.7 WSW SWELL 8.0
2024-04-22 05:40 pm 4.3 4.3 10.0WNW 0.7 3.3 WSW SWELL 7.8
2024-04-22 05:10 pm 4.3 4.3 10.0 NW 0.7 3.6 WSW SWELL 7.8
2024-04-22 04:40 pm 4.3 4.3 10.8 W 0.7 3.6 WSW SWELL 7.8
2024-04-22 04:10 pm 4.3 4.3 10.8WNW 0.7 3.6 W SWELL 7.7
2024-04-22 03:40 pm 4.6 4.3 10.8WNW 0.7 4.0 W SWELL 7.6
2024-04-22 03:10 pm 4.6 4.6 10.8 W 0.7 3.8 WNW SWELL 7.6
2024-04-22 02:40 pm 4.6 4.6 10.8WNW 0.7 4.0 WSW SWELL 7.7
2024-04-22 02:10 pm 4.9 4.9 10.8WNW 0.7 4.0 W SWELL 7.9
2024-04-22 01:40 pm 4.6 4.6 10.0WNW 0.7 4.0 W SWELL 7.6
2024-04-22 01:10 pm 4.9 4.9 10.0WNW 0.7 3.0 SW SWELL 7.8

Plot of wave energy versus frequency (and period)